カタログに戻る

BRO-20

運用中科学SSO
NORAD 66674·PAYLOAD·🇫🇷 France

打ち上げ Nov 28, 2025 から Vandenberg Space Force Base

Loading…

次のパス (今後24時間)

TLE

最新Source: Space-Track

元期: Sep 13, 2026, 22:18 UTC

1 66674U 25276J   26256.92978182  .00002236  00000-0  11121-3 0  9990
2 66674  97.4096 328.2899 0007640  62.7526 297.4486 15.18623505 43869

AllMySatでBRO-20をリアルタイム追跡

Download on the App Store